Regional Weather Roundup
Issued by NWS Mobile, AL

Home | Current Version | Previous Version | Text Only | Print | Product List | Glossary On
Versions: 1 2 3 4 5 6 7 8 9 10 11 12 13 14 15 16 17 18 19 20 21 22 23 24 25 26 27 28 29 30 31 32 33 34 35 36 37 38 39 40 41 42 43 44 45 46 47 48 49 50
000
ASUS44 KMOB 281816
RWRMOB
REGIONAL WEATHER ROUNDUP
NATIONAL WEATHER SERVICE MOBILE AL
100 PM CDT TUE APR 28 2015

ALZ061>064-281900-
COASTAL ALABAMA


CITY           SKY/WX    TMP DP  RH WIND       PRES   REMARKS
MOBILE REG APT PTSUNNY   76  64  66 S3        29.80F
6HR MIN TEMP:  60; 6HR MAX TEMP:  77;

BROOKLEY FIELD PTSUNNY   75  63  66 SE6       29.81F
6HR MIN TEMP:  61; 6HR MAX TEMP:  76;

GULF SHORES    MOCLDY    74  66  75 S5        29.79F
6HR MIN TEMP:  63; 6HR MAX TEMP:  75;


$$

ALZ051>060-281900-
INTERIOR SOUTHWEST AND SOUTH CENTRAL ALABAMA


CITY           SKY/WX    TMP DP  RH WIND       PRES   REMARKS
ANDALUSIA/OPP  CLOUDY    76  63  64 SE5       29.81F
6HR MIN TEMP:  63; 6HR MAX TEMP:  78;

EVERGREEN      PTSUNNY   76  62  62 S5        29.81F
6HR MIN TEMP:  59; 6HR MAX TEMP:  77;

FLORALA        CLOUDY    74  65  73 VRB7      29.82F
6HR MIN TEMP:  61; 6HR MAX TEMP:  74;

GREENVILLE     CLOUDY    73  60  63 S3        29.82S
6HR MIN TEMP:  58; 6HR MAX TEMP:  76;


$$

FLZ001>006-281900-
WESTERN FLORIDA PANHANDLE


CITY           SKY/WX    TMP DP  RH WIND       PRES   REMARKS
CRESTVIEW      PTSUNNY   78  66  66 CALM      29.80F
6HR MIN TEMP:  61; 6HR MAX TEMP:  79;

DESTIN         CLOUDY    77  67  71 SE5       29.79F
6HR MIN TEMP:  67; 6HR MAX TEMP:  77;

DUKE FIELD     PTSUNNY   78  63  61 VRB2      29.78F
6HR MIN TEMP:  62; 6HR MAX TEMP:  78;

MARY ESTHER    NOT AVBL
MILTON         MOCLDY    80  63  55 VRB5      29.79F
6HR MIN TEMP:  63; 6HR MAX TEMP:  80;

PENSACOLA      PTSUNNY   74  65  73 SE8       29.79F
6HR MIN TEMP:  63; 6HR MAX TEMP:  76;

NAS PENSACOLA  PTSUNNY   74  66  76 SE7       29.78F
6HR MIN TEMP:  65; 6HR MAX TEMP:  75;

VALPARAISO     CLOUDY    76  67  75 SE6       29.79F
6HR MIN TEMP:  65; 6HR MAX TEMP:  76; 6HR PCP: TRACE;


$$

...MARINE OBSERVATIONS...

STATION/POSITION TIME  SKY/WX   TEMP    WIND        PRES    VSBY
                                AIR SEA DIR/SP/G
                 (UTC)          (F)     (DEG/KT/KT) (MB)    (MI)
PASCAGOULA       1700            71     180/  5/  5 1009.3F
PETIT BOIS ISL   1700            71      60/  5/  6 1009.7F
E DAUPHIN ISLAND 1800            69     360/  3/  3 1008.7F
MIDDLE BAY LIGHT 1700            71     360/  4     1008.5F
USCG MOBILE BAY  1700            71 71   90/  2/  2 1008.4F
STATE DOCKS      1712            75 69              1009.0F
MEAHER PARK      1800            73     250/  5     1008.5F
FORT MORGAN      1700            70      60/  4/  5 1008.8F
12 S ORANGE BCH  1750            71 74   80/  8/  8 1008.1F
WVE H/P(F/S)=  4/ 8

PENSACOLA BAY    1700            75 74   80/  2/  3 1009.5F
64 S DAUPHIN ISL 1750            74 76   80/ 12/ 14 1008.6F
WVE H/P(F/S)=  5/ 8

67 S FORT MORGAN 1730            76                 1008.5F
115 SE PENSACOLA 1750            75 76  150/ 12/ 14 1008.9R
WVE H/P(F/S)=  5/ 6

MID GULF/42001   1750            79 80   90/ 16/ 17 1006.5F
WVE H/P(F/S)=  6/ 8

EAST GULF/42003  1750            76 79   90/ 12/ 14 1008.0F
WVE H/P(F/S)=  6/ 6


$$

...NEARBY LOCATIONS

CITY           SKY/WX    TMP DP  RH WIND       PRES   REMARKS
GULFPORT       CLOUDY    72  65  78 W7        29.79F
6HR MIN TEMP:  62; 6HR MAX TEMP:  74;

BILOXI         CLOUDY    70  68  94 VRB2      29.79F
6HR MIN TEMP:  62; 6HR MAX TEMP:  72; 6HR PCP: TRACE;

PASCAGOULA     CLOUDY    75  65  70 S6        29.79F
6HR MIN TEMP:  61; 6HR MAX TEMP:  76;

HATTIESBURG    CLOUDY    71  56  58 NE6       29.83F
6HR MIN TEMP:  57; 6HR MAX TEMP:  71;

LAUREL         CLOUDY    68 N/A N/A NE9       29.84F
6HR MIN TEMP:  57; 6HR MAX TEMP:  68;

MERIDIAN       CLOUDY    63  50  62 N8        29.86F
6HR MIN TEMP:  55; 6HR MAX TEMP:  64;

MERIDIAN NAS   CLOUDY    63  47  55 N12       29.87F
6HR MIN TEMP:  53; 6HR MAX TEMP:  64;

MONTGOMERY     CLOUDY    77  58  51 E6        29.83S
6HR MIN TEMP:  57; 6HR MAX TEMP:  77;

MAXWELL AFB    CLOUDY    76  59  54 SE10      29.82S
6HR MIN TEMP:  56; 6HR MAX TEMP:  77;

TROY           CLOUDY    71  61  70 SE9       29.84S
6HR MIN TEMP:  57; 6HR MAX TEMP:  75;

FORT RUCKER    CLOUDY    68  62  81 VRB7      29.82F
6HR MIN TEMP:  61; 6HR MAX TEMP:  71;

DALEVILLE      CLOUDY    68  60  76 E9        29.82F
6HR MIN TEMP:  60; 6HR MAX TEMP:  70;

DOTHAN         CLOUDY    66  61  84 E13       29.86F
6HR MIN TEMP:  61; 6HR MAX TEMP:  67;


$$

...OTHER SURROUNDING LOCATIONS...

CITY           SKY/WX    TMP DP  RH WIND       PRES   REMARKS
BIRMINGHAM     PTSUNNY   72  52  49 E8        29.87F
6HR MIN TEMP:  54; 6HR MAX TEMP:  73;

TUSCALOOSA     CLOUDY    71  47  42 N5        29.86S
6HR MIN TEMP:  54; 6HR MAX TEMP:  72;

COLUMBUS GA    PTSUNNY   72  54  53 E12G17    29.84F
6HR MIN TEMP:  57; 6HR MAX TEMP:  74;

PANAMA CITY    NOT AVBL
TALLAHASSEE    CLOUDY    72  65  78 E10       29.80F
6HR MIN TEMP:  68; 6HR MAX TEMP:  73; 6HR PCP:  0.04;

BATON ROUGE    CLOUDY    70  62  76 CALM      29.82F
6HR MIN TEMP:  61; 6HR MAX TEMP:  71; 6HR PCP:  0.02;

NEW ORLEANS    CLOUDY    72  64  76 N8        29.80F
6HR MIN TEMP:  65; 6HR MAX TEMP:  73; 6HR PCP: TRACE;

SLIDELL        CLOUDY    74  66  76 CALM      29.79F
6HR MIN TEMP:  62; 6HR MAX TEMP:  75;

JACKSON        CLOUDY    62  49  62 NE9       29.87F
6HR MIN TEMP:  57; 6HR MAX TEMP:  63; 6HR PCP: TRACE;

MCCOMB         CLOUDY    71  59  65 N3        29.82F
6HR MIN TEMP:  58; 6HR MAX TEMP:  71;


$$

...SURROUNDING MARINE OBSERVATIONS...

STATION/POSITION TIME  SKY/WX   TEMP    WIND        PRES    VSBY
                                AIR SEA DIR/SP/G
                 (UTC)          (F)     (DEG/KT/KT) (MB)    (MI)
WAVELAND         1700            69 71   70/  1/  2 1009.6F
PASCAGOULA RGN A 1700            75      70/  2/  3 1008.9F
PASCAGOULA PORT  1700               73                N/A
GRAND ISLE       1700            73 75   50/  7/  9 1009.1S
SOUTHWEST PASS   1800            73      50/ 14/ 15 1008.0F
PILOT STATION E  1700            77 66   50/ 11/ 13 1009.0F
SHELL BEACH      1712            71 74   30/  5/  7 1008.8F
PANAMA CITY      1700            74 76   30/  4/  6 1008.6F
APALACHICOLA     1700            73 72  110/  4/  5 1008.5F
TYNDALL TOWER C  1800            73     120/  5/  6 1008.7R
S APLCHCLA/42036 1750            75 75  130/ 17/ 21 1007.4S
WVE H/P(F/S)=  5/ 6


$$




USA.gov is the U.S. government's official web portal to all federal, state and local government web resources and services.